Midland, MI

5:32 AM EDT on August 27, 2016 (GMT -0400)
Barstow

Weather History for KIKW - November, 2011

Change the Weather History Date:

Tuesday, November 22, 2011

  Actual Average (KMBS) Record (KMBS)
Temperature  
Mean Temperature 32 °F 36 °F  
Max Temperature 41 °F 43 °F 62 °F (2012)
Min Temperature 24 °F 29 °F 17 °F (2000)
Degree Days  
Heating Degree Days 32    
Month to date heating degree days  
Since 1 July heating degree days  
Cooling Degree Days 0    
Month to date cooling degree days  
Year to date cooling degree days  
Moisture  
Dew Point 30 °F    
Average Humidity 83    
Maximum Humidity 95    
Minimum Humidity 72    
Precipitation  
Precipitation 0.00 in 0.09 in 1.70 in (2010)
Month to date precipitation 2.05  
Year to date precipitation 29.03  
Snow  
Snow 0.00 in - - ()
Month to date snowfall  
Since 1 July snowfall  
Since 1 September snowfall  
Snow Depth -    
Sea Level Pressure  
Sea Level Pressure 30.13 in    
Wind  
Wind Speed 5 mph (NE)    
Max Wind Speed 15 mph    
Max Gust Speed 23 mph    
Visibility 10 miles    
Events      
T = Trace of Precipitation, MM = Missing Value Source: NWS Daily Summary

Daily Weather History Graph

Daily Weather History Graph

Search for Another Location

Airport or City:

Trip Planner

Search our weather history database for the weather conditions in past years. The results will help you decide how hot, cold, wet, or windy it might be!

Date:

Astronomy

Nov. 22, 2011 Rise Set
Actual Time 7:39 AM EST 5:06 PM EST
Civil Twilight 7:08 AM EST 5:37 PM EST
Nautical Twilight 6:33 AM EST 6:12 PM EST
Astronomical Twilight 5:58 AM EST 6:47 PM EST
Moon 4:25 AM EST (11/22) 3:07 PM EST (11/22)
Length of Visible Light 10h 29m
Length of Day
9h 26m
Waning Crescent, 9% of the Moon is Illuminated
Nov 22
Waning Crescent
Nov 25
New
Dec 2
First Quarter
Dec 10
Full
Dec 17
Last Quarter

Hourly Weather History & Observations

Time (EST) Temp. Windchill Dew Point Humidity Pressure Visibility Wind Dir Wind Speed Gust Speed Precip Events Conditions
12:13 AM 25.3 °F - 23.7 °F 94% 30.30 in 10.0 mi Calm Calm - N/A   Clear
12:33 AM 26.4 °F - 24.6 °F 93% 30.31 in 10.0 mi Calm Calm - N/A   Clear
12:52 AM 25.3 °F - 23.7 °F 94% 30.31 in 10.0 mi Calm Calm - N/A   Clear
1:13 AM 24.4 °F - 22.8 °F 94% 30.32 in 10.0 mi Calm Calm - N/A   Clear
1:33 AM 26.2 °F - 24.6 °F 94% 30.33 in 10.0 mi Calm Calm - N/A   Clear
1:52 AM 27.0 °F - 25.3 °F 94% 30.32 in 10.0 mi Calm Calm - N/A   Clear
2:13 AM 26.4 °F - 24.6 °F 93% 30.32 in 10.0 mi Calm Calm - N/A   Clear
2:33 AM 25.5 °F - 23.7 °F 93% 30.32 in 10.0 mi Calm Calm - N/A   Clear
2:52 AM 25.2 °F - 23.5 °F 94% 30.32 in 10.0 mi Calm Calm - N/A   Clear
3:13 AM 25.7 °F - 23.9 °F 93% 30.31 in 10.0 mi Calm Calm - N/A   Clear
3:33 AM 25.5 °F - 23.9 °F 94% 30.31 in 10.0 mi Calm Calm - N/A   Clear
3:52 AM 25.5 °F - 23.9 °F 94% 30.30 in 10.0 mi Calm Calm - N/A   Clear
4:13 AM 24.8 °F - 23.4 °F 94% 30.29 in 10.0 mi Calm Calm - N/A   Clear
4:33 AM 26.2 °F - 25.0 °F 95% 30.29 in 10.0 mi Calm Calm - N/A   Clear
4:52 AM 26.1 °F - 24.4 °F 94% 30.29 in 10.0 mi Calm Calm - N/A   Clear
5:13 AM 26.4 °F - 24.4 °F 92% 30.28 in 10.0 mi Calm Calm - N/A   Clear
5:32 AM 26.1 °F - 24.3 °F 93% 30.27 in 10.0 mi Calm Calm - N/A   Clear
5:52 AM 25.9 °F - 24.3 °F 94% 30.27 in 10.0 mi Calm Calm - N/A   Clear
6:13 AM 27.3 °F - 26.1 °F 95% 30.26 in 10.0 mi Calm Calm - N/A   Clear
6:32 AM 27.3 °F - 25.3 °F 92% 30.26 in 10.0 mi Calm Calm - N/A   Clear
6:53 AM 30.6 °F 23.8 °F 28.8 °F 93% 30.26 in 10.0 mi ENE 6.9 mph - N/A   Clear
7:13 AM 34.9 °F 27.1 °F 31.8 °F 89% 30.25 in 10.0 mi East 10.4 mph - N/A   Scattered Clouds
7:32 AM 35.2 °F 27.6 °F 31.5 °F 86% 30.25 in 10.0 mi East 10.4 mph - N/A   Scattered Clouds
7:53 AM 35.2 °F 27.6 °F 31.8 °F 87% 30.23 in 10.0 mi East 10.4 mph - N/A   Clear
8:13 AM 35.2 °F 28.1 °F 31.8 °F 87% 30.23 in 10.0 mi East 9.2 mph - N/A   Clear
8:32 AM 35.6 °F 28.0 °F 32.0 °F 87% 30.23 in 10.0 mi East 10.4 mph - N/A   Mostly Cloudy
8:53 AM 36.5 °F 29.7 °F 32.2 °F 84% 30.24 in 7.0 mi East 9.2 mph 16.1 mph N/A   Mostly Cloudy
9:13 AM 36.7 °F 29.4 °F 32.4 °F 84% 30.23 in 7.0 mi East 10.4 mph - N/A   Scattered Clouds
9:32 AM 37.0 °F 29.8 °F 32.4 °F 83% 30.23 in 7.0 mi East 10.4 mph 17.3 mph N/A   Clear
10:13 AM 37.4 °F 29.8 °F 32.0 °F 81% 30.21 in 10.0 mi ENE 11.5 mph - N/A   Clear
10:32 AM 37.4 °F 29.8 °F 32.0 °F 81% 30.22 in 10.0 mi ENE 11.5 mph 17.3 mph N/A   Clear
10:53 AM 37.9 °F 29.6 °F 32.0 °F 79% 30.20 in 10.0 mi ENE 13.8 mph 18.4 mph N/A   Clear
11:12 AM 37.9 °F 30.0 °F 32.0 °F 79% 30.18 in 10.0 mi ENE 12.7 mph - N/A   Clear
11:33 AM 38.5 °F 30.7 °F 32.2 °F 78% 30.18 in 10.0 mi ENE 12.7 mph 20.7 mph N/A   Scattered Clouds
11:53 AM 38.5 °F 29.9 °F 32.2 °F 78% 30.16 in 10.0 mi ENE 15.0 mph 20.7 mph N/A   Scattered Clouds
1:13 PM 38.5 °F 30.7 °F 32.0 °F 78% 30.11 in 10.0 mi ENE 12.7 mph - N/A   Scattered Clouds
1:32 PM 38.5 °F 30.3 °F 32.0 °F 78% 30.09 in 10.0 mi ENE 13.8 mph - N/A   Scattered Clouds
1:53 PM 38.5 °F 30.3 °F 32.0 °F 78% 30.08 in 10.0 mi NE 13.8 mph 19.6 mph N/A   Scattered Clouds
2:32 PM 38.3 °F 31.4 °F 32.0 °F 78% 30.05 in 10.0 mi ENE 10.4 mph 19.6 mph N/A   Mostly Cloudy
2:53 PM 38.3 °F 30.5 °F 32.0 °F 78% 30.03 in 10.0 mi NE 12.7 mph 21.9 mph N/A   Overcast
3:12 PM 38.3 °F 30.9 °F 32.0 °F 78% 30.00 in 10.0 mi NE 11.5 mph 20.7 mph N/A   Overcast
3:33 PM 38.3 °F 30.9 °F 32.0 °F 78% 29.99 in 10.0 mi NE 11.5 mph 20.7 mph N/A   Overcast
3:52 PM 38.5 °F 30.3 °F 32.2 °F 78% 29.98 in 10.0 mi NE 13.8 mph 19.6 mph N/A   Overcast
4:12 PM 38.7 °F 30.9 °F 32.0 °F 77% 29.98 in 10.0 mi NE 12.7 mph 19.6 mph N/A   Overcast
4:33 PM 38.8 °F 31.2 °F 32.0 °F 76% 29.97 in 10.0 mi ENE 12.7 mph 19.6 mph N/A   Overcast
4:53 PM 38.8 °F 30.8 °F 31.6 °F 75% 29.98 in 10.0 mi ENE 13.8 mph 19.6 mph N/A   Overcast
5:12 PM 38.8 °F 32.1 °F 31.6 °F 75% 29.98 in 10.0 mi NE 10.4 mph 18.4 mph N/A   Overcast
5:33 PM 39.2 °F 33.6 °F 32.0 °F 75% 29.98 in 10.0 mi NE 8.1 mph 18.4 mph N/A   Overcast
6:13 PM 39.7 °F 32.3 °F 32.0 °F 74% 29.96 in 10.0 mi NE 12.7 mph 17.3 mph N/A   Overcast
6:33 PM 39.7 °F 31.5 °F 32.2 °F 74% 29.95 in 10.0 mi NE 15.0 mph 18.4 mph N/A   Overcast
6:52 PM 39.7 °F 33.2 °F 32.2 °F 74% 29.95 in 10.0 mi NE 10.4 mph 20.7 mph N/A   Overcast
7:13 PM 40.1 °F 33.6 °F 32.0 °F 73% 29.94 in 10.0 mi NE 10.4 mph 23.0 mph N/A   Overcast
7:33 PM 40.1 °F 33.2 °F 32.2 °F 73% 29.93 in 10.0 mi ENE 11.5 mph 18.4 mph N/A   Overcast
7:52 PM 40.5 °F 33.6 °F 32.4 °F 73% 29.92 in 10.0 mi NE 11.5 mph 18.4 mph N/A   Overcast
8:13 PM 40.6 °F 33.0 °F 32.5 °F 73% 29.92 in 10.0 mi NE 13.8 mph 20.7 mph N/A   Overcast
8:32 PM 41.0 °F 34.7 °F 32.5 °F 72% 29.92 in 10.0 mi NE 10.4 mph - N/A   Overcast
8:53 PM 41.0 °F 35.8 °F 32.7 °F 72% 29.92 in 10.0 mi NE 8.1 mph - N/A   Overcast
9:12 PM 41.0 °F 35.8 °F 32.9 °F 73% 29.91 in 10.0 mi NE 8.1 mph - N/A   Overcast
10:13 PM 40.3 °F 35.5 °F 32.4 °F 73% 29.91 in 10.0 mi North 6.9 mph - N/A   Overcast
10:32 PM 39.7 °F 34.9 °F 32.2 °F 74% 29.90 in 10.0 mi North 6.9 mph - N/A   Overcast
10:53 PM 39.7 °F 34.9 °F 32.4 °F 75% 29.89 in 10.0 mi North 6.9 mph - N/A   Overcast
11:13 PM 39.7 °F 34.9 °F 32.4 °F 75% 29.89 in 10.0 mi North 6.9 mph - N/A   Overcast
11:32 PM 39.7 °F 34.9 °F 32.4 °F 75% 29.90 in 10.0 mi North 6.9 mph - N/A   Scattered Clouds
11:53 PM 39.2 °F 34.2 °F 32.2 °F 76% 29.90 in 10.0 mi North 6.9 mph - N/A   Scattered Clouds